Погода в Елизово

Россия / Камчатский край     53°10′58″N   158°23′18″E
темп.,
°C
ветер,
м/с
пор.,
м/с
влажн.,
%
обл.,
%
осадки,
мм/ч
давл.,
гПа
погр.,
м
16 мая, вс
вс1600:00+6ссз11630 0.0 102313
03:00+4с226412 0.0 102213
06:00+3с22665 0.0 102216
09:00+6з1157100 0.0 1022310
12:00+9ю3347100 0.0 1021757
15:00+10ююв4443100 0.0 1018818
18:00+8ю3351100 0.0 1017533
21:00+5ююв3474100 0.3 1017345
17 мая, пн
пн1700:00+3юв3480100 0.8 1016322
03:00+2юв468598 0.1 1014322
06:000юв569490 0.3 1013264
09:00+2юв458672 0.0 1011386
12:00+4юв447661 0.1 1008563
15:00+4вюв447865 0.0 1007580
18:00+4юв337853 0.0 1006542
21:00+3юв228487 0.0 1006457
18 мая, вт
вт1800:00+3юв118685 0.0 1005359
03:00+3ююз008988 0.0 1005305
06:00+2з019274 0.0 1005214
09:00+4з228328 0.0 1006310
12:00+8зюз336722 0.0 1005778
15:00+11зюз34514 0.0 10051024
18:00+12зюз34494 0.0 1005943
21:00+9ююз22664 0.0 1007301
19 мая, ср
ср1900:00+7зсз017967 0.0 100843
03:00+8сз2471100 0.0 1008109
06:00+7ссз4563100 0.0 100972
09:00+10сз345380 0.0 1009397
12:00+13зсз354531 0.0 1008831
15:00+15зсз71142100 0.0 10091661
18:00+14сз464257 0.0 10091062
21:00+13ссз235085 0.0 100960
20 мая, чт
чт2000:00+11ссз11576 0.0 100914
03:00+10ссз116081 0.0 100917
06:00+9ссз445999 0.0 100961
09:00+8сз4570100 0.0 1009309
12:00+9зсз57631 0.0 1010720
15:00+11зсз510420 0.0 10101230
18:00+10зсз7124591 0.0 10111379
21:00+8з47567 0.0 1012697